STARLINK-34697

Last updated on Sat Aug 16 2025 00:02:05 GMT+0000 (Coordinated Universal Time)

1 64791U 25150B 25227.58336806 .00053248 00000+0 12120-2 0 9996 2 64791 69.9993 315.3796 0003390 285.8523 67.9259 15.42685188 6086
UTC large
Height (km)
Speed (km/s)
/
Latitude / Longitude
Inclination (degrees)
Orbital Period (minutes)
Azimuth
Elevation
Range (km)
Doppler Factor

Next 0 passes for location: London (51.5072 / 0.1276)

Sorry there are no passes over London.